Weather observations for the past three days for
Kivalina, Kivalina Airport
Imperial (Metric)
Date Time (akdt) Wind (mph) Vis. (mi.) Weather Sky Cond. Temperature (ºF) Relative Humidity Wind Chill (°F) Heat Index (°F) Pressure Precipitation (in)
Air Dwpt 6 hour altimeter (in) sea level (mb) 1 hr 3 hr 6 hr
Max. Min.
07 03:53 N 21 10.00 Overcast and Breezy OVC041 21 17.1 23 21 85% 6 30.14 1020.6
07 02:53 N 21 10.00 Overcast and Breezy FEW046 OVC060 21 16 81% 6 30.13 1020.4
07 01:53 N 24 10.00 Overcast and Breezy BKN060 OVC080 21 16 81% 5 30.12 1020.1
07 00:53 N 18 10.00 Overcast BKN080 OVC100 21 16 81% 7 30.13 1020.3
06 23:53 N 18 10.00 Overcast OVC095 21 16 81% 7 30.12 1020.1
06 22:53 N 21 10.00 Overcast and Breezy OVC095 23 17.1 78% 9 30.12 1019.8
06 21:53 N 23 10.00 A Few Clouds and Breezy FEW019 23 17.1 26.1 23 78% 8 30.1 1019.4
06 20:53 N 24 10.00 Partly Cloudy and Breezy SCT020 25 18 75% 10 30.1 1019.1
06 19:53 N 17 10.00 Overcast OVC020 25 19 78% 13 30.1 1019.3
06 18:53 N 16 10.00 A Few Clouds FEW021 26.1 19 75% 14 30.09 1018.8
06 17:53 N 20 10.00 A Few Clouds FEW020 25 18 75% 12 30.07 1018.1
06 16:53 N 18 10.00 Fair CLR 24.1 17.1 75% 11 30.07 1018.1
06 15:53 N 16 10.00 A Few Clouds FEW021 24.1 16 25 21 71% 12 30.07 1018.3
06 14:53 N 16 10.00 Mostly Cloudy BKN020 24.1 17.1 75% 12 30.05 1017.7
06 13:53 N 17 10.00 Partly Cloudy SCT021 24.1 17.1 75% 11 30.05 1017.5
06 12:53 N 17 10.00 Mostly Cloudy SCT020 BKN034 24.1 16 71% 11 30.03 1017.1
06 11:53 NW 12 10.00 Partly Cloudy FEW024 SCT039 23 15.1 72% 13 30.03 1016.8
06 10:53 NW 15 10.00 Overcast OVC046 21 15.1 78% 8 30.01 1016.3
06 09:53 NW 14 10.00 Overcast OVC045 21 16 21 19 81% 9 30.01 1016.2
06 08:53 N 10 8.00 Overcast OVC046 19.9 15.1 81% 9 30 1015.9
06 07:53 NW 13 10.00 Overcast OVC045 19.9 15.1 81% 8 29.99 1015.6
06 06:53 NW 13 10.00 Overcast OVC046 19.9 15.1 81% 8 29.98 1015.4
06 05:53 NW 12 10.00 Overcast FEW015 OVC045 19.9 15.1 81% 9 29.98 1015.3
06 04:53 N 10 10.00 Overcast FEW015 OVC044 19.9 15.1 81% 9 29.98 1015.1
06 03:53 NW 10 10.00 Overcast SCT016 OVC044 19 14 21 19 81% 8 29.97 1014.9
06 02:53 N 13 10.00 Overcast OVC043 19 14 81% 7 29.96 1014.6
06 01:53 N 14 10.00 Overcast OVC048 19 14 81% 6 29.96 1014.5
06 00:53 N 17 10.00 Overcast OVC016 19.9 14 78% 6 29.95 1014.2
05 23:53 N 14 10.00 Overcast OVC016 21 15.1 78% 9 29.94 1013.9
05 22:53 N 15 10.00 Overcast OVC016 21 15.1 78% 8 29.94 1013.7
05 21:53 NW 16 10.00 Overcast OVC016 21 17.1 23 21 85% 8 29.93 1013.5
05 20:53 NW 16 10.00 Overcast OVC014 21.9 18 85% 9 29.93 1013.5
05 19:53 W 16 10.00 Overcast OVC015 21 18 88% 8 29.92 1013.3
05 18:53 W 16 10.00 Overcast OVC015 21.9 18 85% 9 29.93 1013.4
05 17:53 W 16 10.00 A Few Clouds FEW016 21.9 18 85% 9 29.92 1013.2
05 16:53 NW 17 10.00 A Few Clouds FEW008 21.9 19 89% 9 29.92 1013.1
05 15:53 W 14 10.00 Fair CLR 23 19 23 19 85% 11 29.92 1013.0
05 14:53 W 16 10.00 Fair CLR 21.9 19 89% 9 29.92 1013.2
05 13:53 W 15 10.00 A Few Clouds FEW006 21 18 88% 8 29.92 1013.1
05 12:53 W 13 10.00 A Few Clouds FEW006 21 17.1 85% 10 29.92 1013.1
05 11:53 W 13 10.00 Mostly Cloudy BKN006 19.9 17.1 89% 8 29.92 1013.1
05 10:53 NW 12 10.00 Overcast OVC005 19 17.1 92% 8 29.92 1013.3
05 09:53 NW 10 10.00 Overcast OVC005 19.9 18 21.9 19 92% 9 29.93 1013.4
05 08:53 NW 12 10.00 Overcast OVC006 19.9 18 92% 9 29.93 1013.5
05 07:53 N 9 10.00 Overcast OVC008 21 18 88% 11 29.93 1013.4
05 06:53 N 7 10.00 Overcast OVC008 21.9 19 89% 14 29.93 1013.6
05 05:53 NW 10 10.00 Overcast OVC006 21 19 92% 11 29.94 1013.8
05 04:53 NW 7 10.00 Overcast OVC007 21 19 92% 13 29.93 1013.7
05 03:53 NW 9 10.00 Overcast OVC008 21.9 19 25 21.9 89% 13 29.94 1014.0
05 02:53 NW 7 10.00 Overcast OVC008 23 19.9 88% 16 29.95 1014.3
05 01:53 NW 8 10.00 Overcast OVC008 23 19.9 88% 15 29.97 1014.8
05 00:53 W 6 10.00 Overcast OVC009 24.1 19.9 84% 18 29.98 1015.2
04 23:53 W 6 10.00 Overcast OVC011 25 21 85% 19 29.99 1015.7
04 22:53 NW 5 10.00 Overcast OVC011 25 21 85% 20 30 1015.9
04 21:53 NW 3 10.00 Overcast OVC013 26.1 21 28 26.1 81% 30 1016.0
04 20:53 W 7 10.00 Overcast OVC014 26.1 21 81% 19 30.01 1016.3
04 19:53 W 7 10.00 Overcast OVC016 27 21.9 81% 20 30.02 1016.4
04 18:53 SW 6 10.00 Overcast OVC017 27 21.9 81% 21 30.03 1016.9
04 17:53 SW 5 10.00 Overcast OVC019 27 24.1 89% 22 30.05 1017.4
04 16:53 SW 5 10.00 Overcast OVC021 26.1 23 88% 21 30.06 1017.9
04 15:53 S 5 10.00 Overcast SCT021 OVC030 26.1 21 26.1 24.1 81% 21 30.07 1018.2
04 14:53 W 5 10.00 Fair CLR 25 19.9 81% 20 30.08 1018.6
04 13:53 SW 5 10.00 A Few Clouds FEW027 25 19.9 81% 20 30.09 1019.0
04 12:53 W 5 10.00 Overcast BKN036 OVC046 25 19.9 81% 20 30.09 1019.0
04 11:53 NW 5 4.00 Overcast with Haze BKN038 OVC046 24.1 19 81% 19 30.09 1019.0
04 10:53 NW 5 10.00 Overcast SCT022 BKN032 OVC060 24.1 19.9 84% 19 30.09 1019.1
04 09:53 NW 9 9.00 Overcast BKN007 BKN029 OVC042 24.1 21 27 24.1 88% 15 30.1 1019.1
04 08:53 W 7 10.00 Overcast BKN007 OVC055 24.1 21.9 91% 17 30.09 1018.8
04 07:53 W 13 10.00 Overcast OVC007 25 23 92% 14 30.08 1018.6
04 06:53 SW 8 10.00 Overcast BKN014 OVC050 26.1 23 88% 18 30.07 1018.4
04 05:53 SW 9 10.00 Overcast BKN014 OVC055 26.1 24.1 92% 18 30.07 1018.2
04 04:53 S 10 10.00 Overcast FEW009 SCT032 OVC050 27 25 92% 18 30.06 1018.0
Date Time (akdt) Wind (mph) Vis. (mi.) Weather Sky Cond. Air Dwpt Max. Min. Relative Humidity Wind Chill (°F) Heat Index (°F) altimeter (in) sea level (mb) 1 hr 3 hr 6 hr
6 hour
Temperature (ºF) Pressure Precipitation (in)